Regional Weather Roundup
Issued by NWS

Home | Current Version | Previous Version | Text Only | Print | Product List | Glossary Off
Versions: 1 2 3 4 5 6 7 8 9 10 11 12 13 14 15 16 17 18 19 20 21 22 23 24 25 26 27 28 29 30 31 32 33 34 35 36 37 38 39 40 41 42 43 44 45 46 47 48 49 50

000
ASUS43 KOAX 171510
RWRNE

WEATHER ROUNDUP FOR NEBRASKA
NATIONAL WEATHER SERVICE OMAHA NE
900 AM CST SUN DEC 17 2017

NOTES: SATELLITE DATA IS BEING USED TO AUGMENT CLOUD COVER ABOVE
       12000 FEET.
       "FAIR" INDICATES FEW OR NO CLOUDS BELOW 12,000 FEET WITH NO
       SIGNIFICANT WEATHER AND/OR OBSTRUCTIONS TO VISIBILITY.


NEZ001>004-019>022-054>056-171600-
NEBRASKA PANHANDLE

CITY           SKY/WX    TMP DP  RH WIND       PRES   REMARKS
SCOTTSBLUFF    CLOUDY    31  30  96 S6        30.03S WCI  25
ALLIANCE       FOG       29  29 100 CALM      30.01S VSB 1/4
CHADRON        CLOUDY    30  28  92 CALM      30.03S
GORDON         CLOUDY    31  29  91 CALM      30.02S
KIMBALL        FOG       29  29 100 S3        30.01S VSB 3/4
SIDNEY         CLOUDY    30  29  96 W3        30.03R
$$

NEZ057>060-069>072-079>082-171600-
SOUTHWEST NEBRASKA

CITY           SKY/WX    TMP DP  RH WIND       PRES   REMARKS
NORTH PLATTE   CLOUDY    35  32  88 NW3       30.04R
IMPERIAL       CLOUDY    34  33  96 N6        30.04R WCI  29
LEXINGTON      CLOUDY    32  30  92 NW6       30.04S WCI  26
MCCOOK         CLOUDY    36  31  82 N9        30.04S WCI  29
OGALLALA       CLOUDY    35  33  94 CALM      30.04S
$$

NEZ005>010-023>029-035>040-094-171600-
NORTH CENTRAL NEBRASKA

CITY           SKY/WX    TMP DP  RH WIND       PRES   REMARKS
VALENTINE      CLOUDY    34  31  88 NW3       30.04S
AINSWORTH      CLOUDY    32  32 100 CALM      30.03F FOG
BROKEN BOW     FLURRIES  34  31  88 CALM      30.03R
O`NEILL        FOG       29  29 100 CALM      30.02F VSB<1/4
ORD            CLOUDY    33  30  88 NW8       30.04R WCI  26
THEDFORD       CLOUDY    34  32  94 CALM      30.03S
$$

NEZ041-046>049-061>064-073>077-083>087-171600-
SOUTH CENTRAL NEBRASKA

CITY           SKY/WX    TMP DP  RH WIND       PRES   REMARKS
GRAND ISLAND   CLEAR     27  25  92 NW3       30.04R
AURORA         CLOUDY    30  28  93 CALM      30.05R
HASTINGS       CLOUDY    25  23  92 CALM      30.05R
HEBRON         CLOUDY    33  31  90 N3        30.04R
HOLDREGE       CLOUDY    29  29  98 N9        30.01F WCI  21
KEARNEY        CLOUDY    29  27  92 N8        30.04R WCI  21
YORK           CLOUDY    32  32 100 N9        30.03R WCI  24
$$

NEZ011>018-030>034-042>045-171600-
NORTHEAST NEBRASKA

CITY           SKY/WX    TMP DP  RH WIND       PRES   REMARKS
NORFOLK        MOCLDY    31  27  85 N8        30.00S WCI  23
ALBION         CLOUDY    33  29  87 N7        30.03R WCI  27
BLAIR          CLOUDY    28  26  90 CALM      30.02R FOG
COLUMBUS       CLEAR     29  27  92 CALM      30.04R
FREMONT        CLOUDY    28  25  89 CALM      30.04R FOG
TEKAMAH        CLOUDY    29  25  85 N12       30.02S WCI  19
WAYNE          CLOUDY    29  28  96 N8        30.02S WCI  21
$$

NEZ050>053-065>068-078-088>093-171600-
SOUTHEAST NEBRASKA

CITY           SKY/WX    TMP DP  RH WIND       PRES   REMARKS
LINCOLN        FRZ RAIN  31  28  89 N10       30.03R FOG     WCI  22
OMAHA EPPLEY   CLOUDY    30  23  75 N5        30.04R WCI  25
BEATRICE       DRIZZLE   34  32  93 N5        30.02R WCI  30
FALLS CITY     CLOUDY    42  40  92 S7        30.01R
NEBRASKA CITY  CLOUDY    33  33 100 CALM      30.00R
PLATTSMOUTH    MIX PCPN  32  30  93 NW5       30.01R WCI  27
$$

NEZ044-045-051>053-067-171600-
OMAHA AREA

CITY           SKY/WX    TMP DP  RH WIND       PRES   REMARKS
OMAHA EPPLEY   CLOUDY    30  23  75 N5        30.04R WCI  25
BLAIR          CLOUDY    28  26  90 CALM      30.02R FOG
FREMONT        CLOUDY    28  25  89 CALM      30.04R FOG
MILLARD        CLOUDY    31  26  81 NW6       30.05R WCI  26
OFFUTT AFB     LGTSLEET  31  26  84 NW6       30.03R WCI  25
PLATTSMOUTH    MIX PCPN  32  30  93 NW5       30.01R WCI  27
WAHOO          CLOUDY    30  26  84 N6        30.04R WCI  24
$$




USA.gov is the U.S. government's official web portal to all federal, state and local government web resources and services.